Preview of NWS' New Version of Forecast
This preview is not operational and should not be used for support decisions.

Regional Weather Roundup (RWR)

Issued by National Weather Service (NWS)

                            
000
ASUS42 KTBW 210118
RWRFL 
FLORIDA REGIONAL WEATHER ROUNDUP
NATIONAL WEATHER SERVICE TAMPA BAY RUSKIN FL
900 PM EDT FRI SEP 20 2019

NOTE: "FAIR" INDICATES FEW OR NO CLOUDS BELOW 12,000 FEET WITH NO
SIGNIFICANT WEATHER AND/OR OBSTRUCTIONS TO VISIBILITY.

FLZ001>010-012>015-112-114-115-210200-
PANHANDLE FLORIDA
  
CITY           SKY/WX    TMP DP  RH WIND       PRES   REMARKS
PENSACOLA      FAIR      80  71  74 SE8       30.12R                  
PENSACOLA NAS  FAIR      81  72  74 SE10      30.11S                  
MILTON NAS     FAIR      76  66  71 SE5       30.13R                  
CRESTVIEW      FAIR      76  63  64 CALM      30.15R                  
DUKE FIELD     FAIR      78  67  69 CALM      30.13R                  
VALPARAISO     FAIR      80  68  68 SE5       30.12R                  
MARY ESTHER    PTCLDY    80  70  70 CALM      30.11S                  
TRI COUNTY     FAIR      76  62  62 CALM      30.15R                  
PANAMA CITY    FAIR      75  64  68 NE3       30.12R                  
TYNDALL AFB    FAIR      76  67  71 CALM      30.11R                  
APALACHICOLA   FAIR      79  67  66 NE3       30.12R                  

STATION/POSITION SKY/WX   TEMP    WIND        PRES    WAVE   SWELL
                          AIR SEA DIR/SP/G            HT/PER HT/PER
                          (F)     (DEG/KT/KT) (MB)    (FT/S) (FT/S)
30.1N   87.6W              83 85  110/ 16/ 17 1019.7R   5/ 8   2/ 8
29.2N   88.2W              81     100/ 21/ 27 1019.1R   7/ 7
28.8N   86.0W                 85   90/ 21/ 27 1018.9R   6/ 6
PANAMA CITY BEAC           83 84  100/  5/  8 1020.3
TOWER C                    84      90/ 18/ 20 1020.1R
28.5N   84.5W              83      70/ 19/ 25 1019.4R   6/ 6

$$
FLZ011-016>038-118-127-128-134-139-239-210200-
NORTH FLORIDA
  
CITY           SKY/WX    TMP DP  RH WIND       PRES   REMARKS
MARIANNA       FAIR      75  61  61 NE6       30.14R                  
TALLAHASSEE    FAIR      80  63  55 NE5       30.14R                  
PERRY          FAIR      77  63  61 E6        30.16R                  
LIVE OAK       MOCLDY    77  64  65 NE8       30.17R                  
CROSS CITY       N/A     77  65  67 E5        30.15R                  
LAKE CITY      FAIR      75  63  64 CALM      30.18R                  
GAINESVILLE    FAIR      74  65  73 E6        30.19R                  
WILLISTON      MOCLDY    75  67  75 CALM      30.16R                  
PALATKA        MOCLDY    73  68  83 E6        30.18R                  
MAYPORT NAS    MOCLDY    80  67  64 E15       30.18R                  
JACKSONVILLE   FAIR      74  67  78 N3        30.18R                  
JAX NAS        MOCLDY    77  68  73 E5        30.19R                  
JAX CECIL      MOCLDY    73  68  83 NE3       30.18R                  
FERNANDINA BEA MOCLDY    79  67  67 E9G17     30.19R                  
ST AUGUSTINE   FAIR     N/A N/A N/A E17       30.19R                  
PALM COAST     FAIR      78  65  66 E13       30.17R                  

STATION/POSITION SKY/WX   TEMP    WIND        PRES    WAVE   SWELL
                          AIR SEA DIR/SP/G            HT/PER HT/PER
                          (F)     (DEG/KT/KT) (MB)    (FT/S) (FT/S)
SHELL POINT      NOT AVBL
KEATON BEACH               78      70/  8/  9 1021.0R
CEDAR KEY                  80      70/ 13/ 14 1020.0R
FERNANDINA                 85 81   90/  4/  8 1022.9
30.7N   81.3W                 82                N/A     6/13   2/13
MAYPORT                    81 82   90/ 11/ 16 1022.4
31.4N   80.9W              79 81  120/ 12/ 17 1022.6R   6/ 6   3/ 6
ST AUGUSTINE               80 81   90/ 17/ 19 1022.2R

$$
FLZ040-043>046-052-053-057-058-063-144-210200-
INTERIOR CENTRAL FLORIDA
  
CITY           SKY/WX    TMP DP  RH WIND       PRES   REMARKS
OCALA          FAIR      78  67  68 E6        30.16R                  
LEESBURG       FAIR      77  66  68 E6        30.16R                  
SANFORD        FAIR      74  66  76 NE5       30.15R                  
ORLANDO EXEC   FAIR      76  64  66 E7        30.15R                  
ORLANDO INTL   FAIR      76  64  66 NE10      30.14R                  
KISSIMMEE      FAIR      80  65  59 NE10      30.15R                  
WINTER HAVEN   FAIR      78  64  61 E10       30.13R                  
LAKELAND       CLEAR     79  63  57 E12       30.13R                  
BARTOW         FAIR      77  64  65 NE8       30.12R                  
SEBRING        FAIR      76  69  79 E13       30.11R                  
OKEECHOBEE     MOCLDY    75  68  78 NE6       30.09R                  

$$
FLZ041-047-054-059-064-141-147-210200-
EAST CENTRAL FLORIDA
  
CITY           SKY/WX    TMP DP  RH WIND       PRES   REMARKS
DAYTONA BEACH  FAIR      78  67  68 E12       30.16R                  
DELAND         FAIR      73  66  78 E5        30.15S                  
NEW SMYRNA BEA PTCLDY    77  66  69 E15G24    30.15S                  
JFK SPACE CTR  PTCLDY    78  66  66 E10G20    30.14R                  
TITUSVILLE     CLEAR     82  66  57 E9        30.14R                  
CAPE CANAVERAL FAIR      79  69  70 E13G21    30.12R                  
PATRICK AFB    FAIR      80  69  67 E18       30.12R                  
MELBOURNE      MOCLDY    81  66  60 E17       30.11R                  
VERO BEACH     FAIR      81  65  58 E14G23    30.11R                  
FT PIERCE      FAIR      80  64  58 E12G21    30.10R                  
STUART         PTCLDY    81  64  57 E16G24    30.10                   

STATION/POSITION SKY/WX   TEMP    WIND        PRES    WAVE   SWELL
                          AIR SEA DIR/SP/G            HT/PER HT/PER
                          (F)     (DEG/KT/KT) (MB)    (FT/S) (FT/S)
28.5N   80.2W              81 83   80/ 21/ 27 1020.6R  10/13   8/13
28.9N   78.5W              79 81   80/ 19/ 25 1021.8R  13/13  11/13
TRIDENT PIER               80 83   60/ 12/ 17 1021.6
28.4N   80.5W                 82                N/A     5/13   2/13
27.5N   80.2W                 82                N/A     9/14   5/14

$$
FLZ050-056-061-142-242-148-248-149-249-151-251-155-255-
160-260-210200-
WEST CENTRAL FLORIDA
  
CITY           SKY/WX    TMP DP  RH WIND       PRES   REMARKS
CRYSTAL RIVER  FAIR      73  68  83 E3        30.14R                  
INVERNESS      FAIR      75  70  83 NE5       30.15R                  
BROOKSVILLE    FAIR      76  64  66 E7        30.13R                  
CLEARWATER AIR FAIR      79  64  61 E8G16     30.10R                  
ST PETE CLEARW FAIR      82  65  56 E14G29    30.10R                  
TAMPA INTL     FAIR      81  64  56 E9        30.11R                  
TAMPA EXEC     FAIR      75  68  78 E3        30.12R                  
PLANT CITY     FAIR      79  66  65 NE10      30.14R                  
MACDILL AFB    FAIR      79  65  62 E15       30.10R                  
PETER O KNIGHT CLOUDY    81  66  61 E12       30.11R                  
ST PETERSBURG  FAIR      82  68  62 E24       30.09R                  
SARASOTA       FAIR      80  66  62 E10       30.07R                  
VENICE         FAIR      79  68  69 NE13      30.08R                  

STATION/POSITION SKY/WX   TEMP    WIND        PRES    WAVE   SWELL
                          AIR SEA DIR/SP/G            HT/PER HT/PER
                          (F)     (DEG/KT/KT) (MB)    (FT/S) (FT/S)
27.3N   84.2W                 85                N/A     7/ 6
CLEARWATER BEACH           81 86   60/ 10/ 16 1019.2
MIDDLE TAMPA BAY           81     100/ 16/ 20 1018.9
VENICE                     78 85   50/ 10/ 13 1018.3R

$$
FLZ066-069-070-075>078-162-262-165-265-210200-
SOUTHWEST FLORIDA AND KEYS
  
CITY           SKY/WX    TMP DP  RH WIND       PRES   REMARKS
PUNTA GORDA    FAIR      76  69  79 E12       30.09R                  
FT MYERS       FAIR      80  68  66 E12       30.05R                  
SOUTHWEST INTL FAIR      78  69  73 E15       30.06R                  
NAPLES         FAIR      81  69  67 NE18      30.03R                  
MARCO ISLAND   FAIR      80  69  69 NE12G21   30.05R                  
IMMOKALEE      MOCLDY    77  68  73 NE10      30.04R                  
MARATHON       FAIR      84  74  71 E17G26    29.98R                  
KEY WEST NAS   FAIR      84  74  71 E24G30    29.97R                  
KEY WEST INTL  FAIR      83  75  77 E18G25    29.98R                  

STATION/POSITION SKY/WX   TEMP    WIND        PRES    WAVE   SWELL
                          AIR SEA DIR/SP/G            HT/PER HT/PER
                          (F)     (DEG/KT/KT) (MB)    (FT/S) (FT/S)
NAPLES                     81 84   60/ 10/ 18 1016.7
26.0N   85.6W              84 86   80/ 17/ 23 1016.3R   9/ 8
DRY TORTUGAS               84      80/ 23/ 26 1015.1R
SAND KEY                   84      80/ 24/ 29 1013.2
SOMBRERO KEY               83      70/ 24/ 30 1015.1
LONG KEY                   83                 1013.9

$$
FLZ067-068-071>074-168-172>174-210200-
SOUTHEAST FLORIDA 
  
CITY           SKY/WX    TMP DP  RH WIND       PRES   REMARKS
W PALM BEACH   FAIR      81  66  60 E18G28    30.07R                  
BOCA RATON     PTCLDY    82  70  65 NE18G30   30.06R                  
FT LAUDER-EXEC CLOUDY    81  68  64 NE20G31   30.04R                  
FT LAUDERDALE  MOCLDY    81  70  69 NE20G31   30.02S                  
POMPANO BEACH  MOCLDY    82  69  64 NE20G25   30.05R                  
PEMBROKE PINES CLOUDY    82  71  69 NE18G25   30.05R                  
OPA LOCKA      LGT RAIN  80  73  79 NE20G25   30.04R                  
MIAMI          CLOUDY    83  68  60 NE21G30   30.03R                  
WEST KENDALL   RAIN      79  74  84 E13       30.02R                  
HOMESTEAD      MOCLDY    78  74  85 NE15G22   30.00S                  

STATION/POSITION SKY/WX   TEMP    WIND        PRES    WAVE   SWELL
                          AIR SEA DIR/SP/G            HT/PER HT/PER
                          (F)     (DEG/KT/KT) (MB)    (FT/S) (FT/S)
PORT EVERGLADES            83      50/ 21/ 27 1016.7
VIRGINIA KEY               83 84   50/ 20/ 26 1015.9
LAKE WORTH                 81 82   50/ 22/ 27 1019.0
FOWEY ROCKS